Regional Weather Roundup
Issued by NWS Charleston, SC

Current Version | Previous Version | Graphics & Text | Print | Product List | Glossary On
Versions: 1 2 3 4 5 6 7 8 9 10 11 12 13 14 15 16 17 18 19 20 21 22 23 24 25 26 27 28 29 30 31 32 33 34 35 36 37 38 39 40 41 42 43 44 45 46 47 48 49 50
681
ASUS42 KCHS 221727
RWRCHS

REGIONAL WEATHER ROUNDUP
NATIONAL WEATHER SERVICE CHARLESTON SC
100 PM EDT TUE AUG 22 2017

NOTE: "FAIR" INDICATES FEW OR NO CLOUDS BELOW 12,000 FEET WITH NO
SIGNIFICANT WEATHER AND/OR OBSTRUCTIONS TO VISIBILITY.

NOT ALL STATIONS ARE QUALITY CONTROLLED. USE DATA WITH CAUTION...
ESPECIALLY DEWPOINT OBSERVATIONS.

SCZ027-030-031-034>040-042>050-221800-
...SOUTHEAST SOUTH CAROLINA...

CITY           SKY/WX    TMP DP  RH WIND       PRES   REMARKS
N CHARLESTON   CLOUDY    87  74  64 SW10      30.09F HX  95
WATERFRONT PRK   N/A     86  75  69 SW6       29.95F HX  95
JOHNS ISLAND   FAIR      88  75  66 S7G13     30.09F HX  97
PINOPOLIS        N/A     86  77  74 VRB3      30.04F HX  97
MONCKS CORNER  FAIR      88  72  58 S3        30.09F HX  94
SUMMERVILLE    FAIR      86  73  66 SW3       30.10F HX  93
BEAUFORT MCAS  PTSUNNY   86  78  77 NW7       30.11F HX  98
BEAUFORT ARPT  PTSUNNY   84  75  74 NW7       30.10F HX  92
HILTON HEAD IS PTSUNNY   84  77  79 N9        30.12F HX  94
WALTERBORO     CLOUDY    77  73  88 W3        30.12F
ALLENDALE      NOT AVBL

...SOUTHERN MIDLANDS AND PEE DEE...

CITY           SKY/WX    TMP DP  RH WIND       PRES   REMARKS
GEORGETOWN     PTSUNNY   88  77  70 SE6       30.10F HX 100
KINGSTREE      CLOUDY    82  75  78 W6        30.10F
ORANGEBURG     PTSUNNY   87  70  56 SW7       30.11F HX  92
BARNWELL       FAIR      90  73  58 CALM      30.10F HX  98
AIKEN          FAIR      88  70  55 SE5       30.14F HX  92
MANNING        RAIN      81  68  65 W15       30.11S
COLUMBIA       MOSUNNY   90  71  53 SE6       30.09F HX  96
SUMTER         PTSUNNY   90  69  51 S5        30.07F HX  94
FLORENCE       MOSUNNY   89  71  55 VRB3      30.09F HX  95
MYRTLE BEACH   LGT RAIN  84  77  79 S12       30.11F HX  94
N MYRTLE BEACH SUNNY     84  76  76 S9        30.10F HX  93

$$

GAZ063-065-086>088-099>101-113>116-118-119-134>141-150-221800-
...SOUTHEAST GEORGIA...

CITY           SKY/WX    TMP DP  RH WIND       PRES   REMARKS
SAVANNAH ARPT  PTSUNNY   87  75  67 N5        30.11F HX  96
HUNTER AAF     LGT RAIN  88  75  66 CALM      30.08F HX  97
FORT STEWART   PTSUNNY   86  73  66 W13       30.09F HX  93
STATESBORO     SUNNY     88  69  52 CALM      30.12F HX  92
SYLVANIA       MOSUNNY   89  75  62 CALM      30.11F HX 100
CLAXTON        PTSUNNY   89  73  60 CALM      30.10F HAZE    HX  97

...CSRA...CENTRAL AND FAR SOUTHEAST GEORGIA...

CITY           SKY/WX    TMP DP  RH WIND       PRES   REMARKS
THOMSON        MOSUNNY   88  73  61 SW5       30.16F HX  95
AUGUSTA-BUSH   PTSUNNY   89  73  59 CALM      30.09F HX  97
AUGUSTA-DANIEL CLOUDY    88  70  55 E7        30.12F HX  93
SWAINSBORO     FAIR      90  70  51 CALM      30.12F HX  95
VIDALIA        PTSUNNY   88  73  62 CALM      30.12F HX  96
EASTMAN        CLOUDY    90  56  31 SE5       30.14F
HAZLEHURST     FAIR      90  64  41 E5        30.10F HX  91
ALMA           PTSUNNY   90  72  55 CALM      30.11F HX  97
WAYCROSS       MOSUNNY   91  70  49 W3        30.10F HX  96
JESUP          RAIN      81  73  78 N7        30.11F
BAXLEY         CLOUDY    84  73  70 CALM      30.11F HX  91
BRUNSWICK      MOSUNNY   86  72  62 CALM      30.11F HX  92
SAINT SIMONS   MOSUNNY   87  76  69 SE8       30.11F HX  97

$$

SCZ027-028-034-036>038-045-046-048>050-GAZ119-141-221800-
...LAKE AND SUPPLEMENTAL COASTAL OBSERVATIONS...

STATION/POSITION TIME  TEMP    WIND        PRES    WAVE   SWELL
                       AIR SEA DIR/SP/G            HT/PER HT/PER/DIR
                 (UTC) (F)     (DEG/KT/KT) (MB)    (FT/S) (FT/S/D)
WINYAH BAY       1645   84     160/  4     1019.0F
LAKE MURRAY      1650   86     190/  6/  8 1018.3F
ACE BASIN NERRS  1645   86     230/  2     1020.0S
FORT PULASKI     1700   84 87  260/  4/  6 1019.9
SAPELO ISLAND    1700   87        CALM     1020.0

$$

ANZ835-935-AMZ111-154-330-350-352-354-370-450-454-472-221800-
...C-MAN AND BUOY OBSERVATIONS...

STATION/POSITION TIME  TEMP    WIND        PRES    WAVE   SWELL
                       AIR SEA DIR/SP/G            HT/PER HT/PER/DIR
                 (UTC) (F)     (DEG/KT/KT) (MB)    (FT/S) (FT/S/D)
BUOY 41004       1710   84 85  210/  6/  8 1019.1
BUOY 41008       1650   83 85   60/  2/  2 1019.7F   2/ 9   2/110/ 9
FOLLY BEACH CMAN 1700   84     210/  9/ 10 1020.1F
CAPERS NEARSHORE 1708   84 86  220/  8/ 12 1019.2F
FRIPP NEARSHORE  1708   83     200/  6/ 10 1019.2F


STATION/POSITION TIME  TEMP    WIND        PRES    WAVE   SWELL
                       AIR SEA DIR/SP/G            HT/PER HT/PER/DIR
                 (UTC) (F)     (DEG/KT/KT) (MB)    (FT/S) (FT/S/D)
5E ST. MARYS GA  1700      89                N/A     3/10   2/120/11
FRYING PAN BUOY  1710   83 85  210/  8/ 10 1019.2
BUOY 41025       1650   83 87  200/ 10/ 12 1019.2F   3/10   3/130/10
CAPE LOOKOUT NC  1700   85     200/  7/  8 1019.0F
BUOY 41002       1650   82 85  130/  8/ 10 1020.2F   5/10   5/100/10
BUOY 41010       1710   84 85  130/ 10/ 14 1018.4
ST AUGUSTINE FL  1700   83 83  100/  4/  5 1020.4F


$$




USA.gov is the U.S. government's official web portal to all federal, state and local government web resources and services.